www.pogodaiklimat.ru

Погода и климат >> Архив погоды >> Япония >> Цу


ПОГОДА в Цу

  • Прогноз погоды в Цу
  • Монитор погоды в Цу

АРХИВ ПОГОДЫ в Цу

Время (UTC), дата Ветер
(напр.,м/с)
 
Видим.   Явления Облачность Т
(С)
Тd
(С)
f
(%)
Тe
(С)
Тes
(С)
Комфортность P
(гПа)
Po
(гПа)
Тmin
(С)
Tmax
(С)
R
(мм)
R24
(мм)
S
(см)
22 12.09 В 7 н/о н/о +25.4 +17.6 62 +30 +30 душно 1014.1 1012.0
23 12.09 В 7 н/о н/о +25.5 +17.7 62 +30 +30 душно 1014.5 1012.4
00 13.09 В 7 15 км {ливн. осадки} 9/8
[Cu Sc Ac As]
+25.4 +17.9 63 +30 +30 душно 1014.9 1012.8 +24.8 0.0
01 13.09 В 6 н/о н/о +25.4 +17.9 63 +30 +30 душно 1015.3 1013.2
02 13.09 ЮВ 8 н/о н/о +25.5 +17.7 62 +30 +30 душно 1014.8 1012.7
03 13.09 ЮВ 5 н/о н/о +25.5 +17.4 61 +30 +30 душно 1014.1 1012.0
04 13.09 ЮВ 7 н/о н/о +25.8 +17.5 60 +30 +30 душно 1013.7 1011.6
05 13.09 ЮВ 6 н/о н/о +25.5 +18.0 63 +30 +30 душно 1013.5 1011.4
06 13.09 ЮВ 7 20 км слаб. ливневой дождь 9/9
[Cu med, cong]
+25.3 +17.8 63 +30 +30 душно 1013.3 1011.2 0.0
08 13.09 В 9 н/о н/о +25.2 +17.9 64 +30 +30 душно 1013.7 1011.6
09 13.09 ЮВ 9 н/о н/о +25.4 +17.1 60 +29 +29 душно 1013.7 1011.6
10 13.09 В 7 н/о н/о +25.3 +17.0 60 +29 +29 душно 1013.9 1011.8
11 13.09 В 7 н/о н/о +25.1 +16.8 60 +29 +29 душно 1014.8 1012.7
12 13.09 В 7 20 км 10/4
[Sc Ac trans]
+24.9 +16.9 61 +29 +29 душно 1015.5 1013.4 +26.4 0.0
13 13.09 В 8 н/о н/о +24.7 +17.2 63 +29 +29 душно 1015.6 1013.5
14 13.09 В 6 н/о н/о +24.4 +17.2 64 +28 +28 душно 1015.5 1013.4
15 13.09 В 7 н/о н/о +24.3 +17.3 65 +28 +28 душно 1014.8 1012.7
16 13.09 В 6 н/о н/о +24.1 +15.9 60 +27 +27 жарко 1014.3 1012.2
17 13.09 В 5 н/о н/о +24.4 +15.1 56 +27 +27 жарко 1014.2 1012.1
18 13.09 В 3 н/о н/о +24.1 +14.8 56 +27 +27 жарко 1014.1 1012.0
19 13.09 В 2 н/о н/о +24.1 +13.6 52 +26 +26 жарко 1014.1 1012.0
21 13.09 СЗ 2 н/о н/о +22.0 +15.6 67 +26 +26 душно 1014.2 1012.1
00 14.09 В 1 20 км 9/4
[Sc Ac trans]
+24.6 +15.8 58 +28 +31 душно 1014.3 1012.2 +21.7
01 14.09 В 2 н/о н/о +25.8 +16.1 55 +29 +29 душно 1014.1 1012.0
02 14.09 В 2 н/о н/о +26.1 +14.9 50 +29 +29 жарко 1013.8 1011.7
03 14.09 В 1 н/о н/о +26.8 +15.8 51 +30 +30 душно 1013.3 1011.2
04 14.09 В 2 н/о н/о +27.7 +16.7 51 +31 +31 душно 1012.5 1010.4
05 14.09 В 4 н/о н/о +27.7 +17.0 52 +32 +32 очень
душно
1012.0 1009.9
06 14.09 ЮВ 3 30 км 6/1
[Cu med, cong Ac trans]
+28.7 +18.2 53 +33 +37 очень
душно
1011.4 1009.3
07 14.09 ЮВ 4 н/о н/о +28.1 +18.8 57 +33 +33 очень
душно
1011.3 1009.2
08 14.09 ЮВ 5 н/о н/о +27.3 +19.1 61 +33 +33 очень
душно
1011.4 1009.3
09 14.09 ЮВ 4 н/о н/о +26.7 +19.8 66 +33 +33 очень
душно
1011.8 1009.7
10 14.09 ЮВ 4 н/о н/о +26.7 +19.3 64 +32 +32 очень
душно
1012.3 1010.2
11 14.09 Ю 3 н/о н/о +26.6 +19.5 65 +32 +32 очень
душно
1012.6 1010.5
12 14.09 Ю 2 20 км 9/9
[Cu Sc]
+26.5 +19.6 66 +32 +32 очень
душно
1012.6 1010.5 +29.0
13 14.09 ЮЗ 2 н/о н/о +26.2 +19.4 66 +32 +32 очень
душно
1012.3 1010.2
14 14.09 ЮЗ 1 н/о н/о +25.6 +19.3 68 +31 +31 очень
душно
1012.0 1009.9
15 14.09 З 2 н/о н/о +25.1 +19.5 71 +30 +30 душно 1011.7 1009.6
16 14.09 СЗ 1 н/о н/о +24.5 +19.6 74 +30 +30 очень
душно
1011.4 1009.3
17 14.09 З 1 н/о н/о +23.7 +19.4 77 +29 +29 душно 1011.1 1009.0
18 14.09 З 2 н/о н/о +23.5 +19.7 79 +29 +29 душно 1011.1 1009.0
19 14.09 З 2 н/о н/о +22.9 +19.3 80 +29 +29 очень
душно
1011.0 1008.9
20 14.09 З 2 н/о н/о +22.3 +19.1 82 +28 +28 душно 1010.6 1008.5
21 14.09 З 2 н/о н/о +22.2 +19.0 82 +28 +28 душно 1010.3 1008.2
22 14.09 СЗ 1 н/о н/о +23.2 +18.5 75 +29 +29 душно 1010.3 1008.2
23 14.09 СВ 2 н/о н/о +25.1 +19.0 69 +30 +30 душно 1010.1 1008.0
00 15.09 В 2 20 км 1/1
[Cu hum]
+26.4 +18.0 60 +31 +38 душно 1010.0 1007.9 +22.1
01 15.09 В 2 н/о н/о +27.7 +18.7 58 +33 +33 очень
душно
1009.7 1007.6
02 15.09 В 2 н/о н/о +28.0 +18.4 56 +33 +33 очень
душно
1009.0 1006.9
03 15.09 В 2 н/о н/о +29.3 +17.2 48 +33 +33 душно 1008.1 1006.0
04 15.09 ЮВ 3 н/о н/о +30.1 +15.4 41 +33 +33 душно 1007.2 1005.1
05 15.09 ЮВ 3 н/о н/о +30.5 +15.4 40 +33 +33 душно 1006.4 1004.3
06 15.09 Ю 2 30 км 1/1
[Cu hum]
+31.2 +15.2 38 +34 +41 душно 1005.9 1003.8
07 15.09 ЮВ 2 н/о н/о +30.3 +16.7 44 +34 +34 очень
душно
1005.4 1003.3
08 15.09 Ю 2 н/о н/о +31.0 +15.8 40 +34 +34 душно 1005.2 1003.1
09 15.09 З 4 н/о н/о +30.4 +16.8 44 +34 +34 очень
душно
1005.2 1003.1
10 15.09 СЗ 2 н/о н/о +28.5 +18.3 54 +33 +33 очень
душно
1005.4 1003.3
11 15.09 З 2 н/о н/о +27.7 +18.4 57 +33 +33 очень
душно
1005.8 1003.7
12 15.09 З 2 30 км ясно +26.9 +18.8 61 +32 +32 очень
душно
1005.7 1003.6 +31.7
13 15.09 З 2 н/о н/о +26.3 +18.5 62 +31 +31 душно 1005.3 1003.2
14 15.09 З 3 н/о н/о +25.5 +18.7 66 +30 +30 душно 1005.0 1002.9
16 15.09 З 2 н/о н/о +25.6 +19.0 67 +31 +31 очень
душно
1004.1 1002.0
17 15.09 З 2 н/о н/о +26.1 +18.8 64 +31 +31 очень
душно
1003.7 1001.6
18 15.09 СЗ 3 н/о н/о +26.7 +18.0 59 +31 +31 душно 1003.2 1001.1
19 15.09 СЗ 3 н/о н/о +27.0 +17.8 57 +31 +31 душно 1003.2 1001.1
21 15.09 СЗ 5 н/о н/о +26.9 +17.1 55 +31 +31 душно 1002.7 1000.6
22 15.09 СЗ 4 н/о н/о +27.2 +17.4 55 +31 +31 душно 1002.8 1000.7
23 15.09 СЗ 5 н/о н/о +27.9 +17.5 53 +32 +32 душно 1002.7 1000.6
00 16.09 СЗ 5 30 км 1/1
[Cu hum Ac trans]
+29.9 +17.7 48 +34 +38 очень
душно
1002.3 1000.2 +25.0
01 16.09 СЗ 7 н/о н/о +30.6 +17.3 45 +35 +35 очень
душно
1001.7 999.7
03 16.09 СЗ 8 н/о н/о +31.0 +18.0 46 +35 +35 очень
душно
1000.8 998.8
04 16.09 З 8 н/о н/о +31.0 +18.7 48 +36 +36 очень
душно
1000.6 998.6
05 16.09 СЗ 7 н/о н/о +30.7 +18.8 49 +36 +36 очень
душно
1000.8 998.8
06 16.09 СЗ 8 30 км 3/3
[Cu hum]
+30.2 +18.3 49 +35 +36 очень
душно
1000.8 998.8
07 16.09 СЗ 7 н/о н/о +29.8 +18.3 50 +35 +35 очень
душно
1001.4 999.3
08 16.09 СЗ 7 н/о н/о +28.3 +18.1 54 +33 +33 очень
душно
1001.8 999.7
09 16.09 СЗ 7 н/о н/о +27.4 +18.1 57 +32 +32 очень
душно
1002.1 1000.0
10 16.09 СЗ 6 н/о н/о +27.2 +18.0 57 +32 +32 очень
душно
1002.8 1000.7
11 16.09 СЗ 6 н/о н/о +26.8 +18.1 59 +31 +31 душно 1003.5 1001.4
12 16.09 СЗ 5 30 км 1/1
[Cu hum]
+26.6 +18.2 60 +31 +31 душно 1004.1 1002.0 +31.9
13 16.09 СЗ 4 н/о н/о +26.5 +18.4 61 +31 +31 душно 1004.4 1002.3
14 16.09 СЗ 5 н/о н/о +26.2 +18.1 61 +31 +31 очень
душно
1004.4 1002.3
15 16.09 СЗ 4 н/о н/о +26.1 +18.3 62 +31 +31 очень
душно
1005.0 1002.9
16 16.09 СЗ 5 н/о н/о +26.0 +18.2 62 +31 +31 очень
душно
1005.2 1003.1
17 16.09 СЗ 5 н/о н/о +25.7 +18.1 63 +30 +30 душно 1005.3 1003.2
18 16.09 СЗ 4 н/о н/о +25.4 +17.9 63 +30 +30 душно 1005.9 1003.8
19 16.09 З 3 н/о н/о +25.2 +17.9 64 +30 +30 душно 1006.6 1004.5
20 16.09 З 3 н/о н/о +25.2 +17.9 64 +30 +30 душно 1007.0 1004.9
21 16.09 З 2 н/о н/о +25.1 +17.8 64 +29 +29 душно 1007.4 1005.3
22 16.09 З 3 н/о н/о +25.9 +18.1 62 +30 +30 душно 1007.8 1005.7
23 16.09 СЗ 5 н/о н/о +27.2 +18.2 58 +32 +32 очень
душно
1008.3 1006.2
00 17.09 СЗ 3 30 км 1/1
[Cu Sc]
+28.7 +17.6 51 +33 +39 очень
душно
1009.2 1007.1 +25.1
01 17.09 З 3 н/о н/о +29.7 +17.5 48 +34 +34 очень
душно
1009.0 1006.9
02 17.09 З 3 н/о н/о +30.3 +17.4 46 +34 +34 очень
душно
1008.6 1006.5
03 17.09 В 4 н/о н/о +29.7 +18.5 51 +35 +35 очень
душно
1008.4 1006.3
04 17.09 В 2 н/о н/о +29.5 +18.0 50 +34 +34 очень
душно
1008.0 1005.9
05 17.09 ЮВ 2 н/о н/о +30.0 +18.5 50 +35 +35 очень
душно
1007.8 1005.7
06 17.09 ЮВ 2 30 км 9/9
[Cu Sc]
+29.8 +18.9 52 +35 +36 очень
душно
1007.8 1005.7
07 17.09 ЮВ 3 н/о н/о +28.9 +20.6 61 +36 +36 очень
душно
1008.1 1006.0
08 17.09 ЮВ 2 н/о н/о +29.2 +20.1 58 +36 +36 очень
душно
1008.7 1006.6
09 17.09 СЗ 3 н/о н/о +28.4 +18.5 55 +33 +33 очень
душно
1009.1 1007.0
10 17.09 СЗ 2 н/о н/о +27.3 +18.6 59 +32 +32 очень
душно
1009.4 1007.3
11 17.09 ЮЗ 2 н/о н/о +27.2 +18.5 59 +32 +32 очень
душно
1010.1 1008.0
12 17.09 З 3 30 км 9/0
[Ac trans]
+26.8 +18.7 61 +32 +32 очень
душно
1010.6 1008.5 +31.4
13 17.09 З 3 н/о н/о +26.3 +18.5 62 +31 +31 душно 1010.9 1008.8
14 17.09 З 2 н/о н/о +26.2 +18.9 64 +31 +31 очень
душно
1010.7 1008.6
15 17.09 ЮЗ 1 н/о н/о +26.3 +19.0 64 +31 +31 душно 1010.6 1008.5
16 17.09 З 1 н/о н/о +25.7 +19.1 67 +31 +31 очень
душно
1010.5 1008.4
17 17.09 З 1 н/о н/о +26.1 +19.0 65 +31 +31 очень
душно
1010.1 1008.0
18 17.09 З 2 н/о н/о +25.5 +18.9 67 +30 +30 душно 1010.0 1007.9 0.0
20 17.09 С 2 н/о н/о +23.7 +21.0 85 +30 +30 очень
душно
1010.2 1008.1
23 17.09 З 2 н/о н/о +24.1 +20.2 79 +30 +30 очень
душно
1011.0 1008.9
00 18.09 З 2 10 км слаб. ливневой дождь 10/8
[Cu Sc Ac As]
+24.6 +20.1 76 +30 +31 очень
душно
1011.4 1009.3 +23.1 1
01 18.09 З 1 н/о н/о +23.6 +20.4 82 +29 +29 душно 1011.5 1009.4
02 18.09 СЗ 1 н/о н/о +23.4 +19.8 80 +30 +30 очень
душно
1011.4 1009.3
03 18.09 ЮЗ 1 н/о н/о +23.8 +19.5 77 +29 +29 душно 1010.2 1008.1
04 18.09 Ю 3 н/о н/о +23.9 +20.3 80 +30 +30 очень
душно
1010.2 1008.1
05 18.09 Ю 3 н/о н/о +24.2 +19.7 76 +29 +29 душно 1009.7 1007.6
06 18.09 Ю 2 15 км в посл. час дождь {ливн. осадки} 9/1
[Cu Sc Ac As]
+24.6 +20.3 77 +30 +33 очень
душно
1009.2 1007.1 2
07 18.09 Ю 3 н/о н/о +25.5 +21.0 76 +32 +32 очень
душно
1008.9 1006.8
09 18.09 СЗ 7 н/о н/о +25.2 +14.1 50 +28 +28 жарко 1009.9 1007.8
10 18.09 СЗ 5 н/о н/о +24.2 +14.6 55 +27 +27 жарко 1010.4 1008.3
11 18.09 СЗ 5 н/о н/о +23.5 +14.2 56 +26 +26 жарко 1010.6 1008.5
12 18.09 СЗ 5 20 км 3/3
[Cu Sc]
+23.1 +13.9 56 +27 +27 душно 1011.1 1009.0 +26.0 2
13 18.09 СЗ 5 н/о н/о +23.0 +13.8 56 +26 +26 жарко 1011.5 1009.4
14 18.09 СЗ 4 н/о н/о +23.0 +14.0 57 +26 +26 жарко 1011.0 1008.9
15 18.09 СЗ 6 н/о н/о +22.8 +13.9 57 +26 +26 жарко 1011.2 1009.1
16 18.09 СЗ 5 н/о н/о +22.8 +14.1 58 +26 +26 жарко 1011.1 1009.0
17 18.09 СЗ 5 н/о н/о +22.8 +13.6 56 +26 +26 жарко 1011.2 1009.1
18 18.09 СЗ 4 н/о н/о +23.1 +12.1 50 +26 +26 жарко 1011.6 1009.5
19 18.09 СЗ 5 н/о н/о +22.8 +10.9 47 +25 +25 комфорт 1011.7 1009.6
20 18.09 СЗ 5 н/о н/о +22.6 +11.4 49 +25 +25 комфорт 1012.2 1010.1
21 18.09 СЗ 5 н/о н/о +22.1 +13.2 57 +25 +25 комфорт 1013.1 1011.0
22 18.09 СЗ 4 н/о н/о +22.6 +13.7 57 +26 +26 жарко 1013.6 1011.5
23 18.09 СЗ 5 н/о н/о +24.6 +13.8 51 +27 +27 жарко 1014.0 1011.9
00 19.09 СЗ 4 30 км 4/1
[Cu med, cong Ac trans Ci fib]
+24.7 +13.0 48 +27 +30 жарко 1014.0 1011.9 +22.1
01 19.09 СЗ 4 н/о н/о +26.5 +12.2 41 +28 +28 жарко 1013.8 1011.7
02 19.09 СЗ 3 н/о н/о +27.1 +11.6 38 +28 +28 жарко 1013.9 1011.8
03 19.09 СЗ 5 н/о н/о +27.9 +11.0 35 +29 +29 жарко 1013.8 1011.7
04 19.09 СЗ 6 н/о н/о +27.5 +8.9 31 +28 +28 жарко 1013.4 1011.3
05 19.09 СЗ 6 н/о н/о +27.5 +9.8 33 +28 +28 жарко 1013.0 1010.9
06 19.09 СЗ 6 30 км 3/1
[Cu hum Ac trans Ci sp]
+27.7 +10.0 33 +28 +31 жарко 1012.8 1010.7
07 19.09 СЗ 4 н/о н/о +26.6 +9.9 35 +27 +27 жарко 1012.5 1010.4
08 19.09 СЗ 4 н/о н/о +25.2 +9.9 38 +26 +26 жарко 1012.9 1010.8
09 19.09 СЗ 5 н/о н/о +23.4 +9.8 42 +25 +25 комфорт 1013.1 1011.0
10 19.09 З 3 н/о н/о +22.6 +9.8 44 +24 +24 комфорт 1013.8 1011.7
11 19.09 ЮЗ 3 н/о н/о +21.9 +10.1 47 +24 +24 комфорт 1014.6 1012.5
12 19.09 ЮЗ 2 25 км 5/0
[Ci sp]
+20.7 +11.1 54 +23 +23 комфорт 1015.1 1012.9 +28.2
13 19.09 ЮЗ 3 н/о н/о +20.4 +11.1 55 +23 +23 комфорт 1015.4 1013.2
14 19.09 З 3 н/о н/о +19.4 +11.5 60 +21 +21 комфорт 1015.6 1013.4
15 19.09 З 2 н/о н/о +18.8 +11.9 64 +20 +20 1015.3 1013.1
16 19.09 З 3 н/о н/о +18.1 +11.7 66 +18 +18 1015.2 1013.0
18 19.09 СЗ 1 н/о н/о +17.9 +11.7 67 +19 +19 1015.1 1012.9
19 19.09 З 3 н/о н/о +17.0 +11.7 71 +17 +17 1015.5 1013.3
20 19.09 З 2 н/о н/о +17.5 +11.5 68 +18 +18 1015.9 1013.7
21 19.09 З 3 н/о н/о +16.7 +11.8 73 +17 +17 1016.5 1014.3
22 19.09 З 3 н/о н/о +18.0 +11.6 66 +18 +18 1016.9 1014.7

 

Местоположение метеостанции Цу (Япония): широта 34.73 долгота 136.51 высота над уровнем моря 18 м.

В архиве по умолчанию представлена погода в Цу за последнюю неделю. Архивные данные за месяц целиком и за предыдущие месяцы, начиная с января 2011 года, Вы можете получить, выбрав интересующий диапазон дат из раскрывающегося списка и нажав кнопку "Ввод!".


*Определитесь, кто Вы:
робот инопланетянин человек

Внимание! Время в таблицах - всемирное. Для получения местного времени необходимо прибавить поправку, которая равна 9 ч.

Смотрите также архив погоды в соседних городах и на ближайших метеорологических станциях:

Погода в Йоккаити (Япония) (23 км)
Погода в Уэно (Япония) (33 км)
Погода в Ирако (Япония) (55 км)
Погода в Наре (Япония) (62 км)
Погода в Нагоя (Япония) (64 км)
Погода в Хиконе (Япония) (66 км)
Погода в Гифу (Япония) (78 км)
Погода в Киото (Япония) (78 км)
Погода в Овасе (Япония) (79 км)
Погода в Осаке (Япония) (92 км)

Пояснения к столбцам:

Ветер - указаны скорость ветра в м/с - средняя за 10 мин, порывы в срок и между сроками (в фигурных скобках) и направление, откуда дует ветер: С - северный, СВ - северо-восточный, В - восточный, ЮВ - юго-восточный, Ю - южный, ЮЗ - юго-западный, З - западный, СЗ - северо-западный.
Видимость - горизонтальная дальность видимости в метрах или километрах. При видимости от 1 до 10 км при отсутствии осадков обычно наблюдается дымка, при ухудшении видимости до 1 км и менее - туман. В сухую погоду видимость может ухудшаться дымом, пылью или мглою.
Явления - указаны атмосферные явления, наблюдавшиеся в срок или в последний час перед сроком; фигурными скобками обозначены явления, наблюдавшиеся между сроками (за 1-3 часа до срока); квадратными скобками обозначены град или гололедные отложения с указанием их диаметра в мм.
Облачность - указаны через наклонную черту общая и нижняя облачность в баллах и высота нижней границы облаков в метрах; квадратными скобками обозначены формы облаков: Ci - перистые, Cs - перисто-слоистые, Cc - перисто-кучевые, Ac - высококучевые, As - высокослоистые, Sc - слоисто-кучевые, Ns - слоисто-дождевые, Cu - кучевые, Cb - кучево-дождевые. Подробнее классификацию облаков см. в Атласе облаков (PDF).
T - Температура воздуха - температура, измеренная на высоте 2 м над землей.
Td - Температура точки росы - температура, при понижении до которой содержащийся в воздухе водяной пар достигнет насыщения.
f - Относительная влажность воздуха - влажноcть воздуха, измеренная на высоте 2 м над землей.
Te - Эффективная температура - температура, которую ощущает одетый по сезону человек в тени. Характеристика душности погоды. При расчете учитывается влияние влажности воздуха и скорости ветра на теплоощущения человека.
Tes - Эффективная температура на солнце - температура, которую ощущает человек, с поправкой на солнечный нагрев. Характеристика знойности погоды. Зависит от высоты солнца над горизонтом, облачности и скорости ветра. Ночью, в пасмурную погоду, а также при ветре 12 м/с и более поправка равна нулю.
P - Атмосферное давление - приведенное к уровню моря атмосферное давление.
Po - Атмосферное давление - измеренное на уровне метеостанции атмосферное давление.
Tmin - Минимальная температура - минимум температуры воздуха на высоте 2 м над землей.
Tmax - Максимальная температура - максимум температуры воздуха на высоте 2 м над землей.
R - Количество осадков - Количество выпавших осадков за период времени, мм. При наведении курсора мыши на число - период времени, за который выпало указанное количество осадков.
R24 - Количество осадков - Количество выпавших осадков за 24 часа, мм.
S - Снежный покров - Высота снежного покрова, см. При наведении курсора мыши на число - состояние снежного покрова и степень покрытия местности в баллах.